Terminal Aerodrome Forecast
Issued by NWS

Home | Current Version | Previous Version | Graphics & Text | Print | Product List | Glossary On
Versions: 1 2 3 4 5 6 7 8 9 10 11 12 13 14 15 16 17 18 19 20 21 22 23 24 25 26 27 28 29 30 31 32
000
FTUS45 KGGW 142200 AAA
TAFGDV
TAF AMD
KGDV 142229Z 1422/1518 32015G20KT 6SM -FZDZ BR OVC012
     FM150000 33016KT 4SM -SN BR OVC010
     FM151100 33015KT P6SM BKN010
      AMD LTD TO CLD VIS AND WIND=

USA.gov is the U.S. government's official web portal to all federal, state and local government web resources and services.